[[{"header":{"parameterUnit":"m.s-1","parameterCategory":1,"la1":30.2991,"la2":30.254,"lo1":-89.0895,"lo2":-89.0444,"dy":0.0017,"dx":0.0017,"nx":28,"ny":28,"refTime":"2024-08-18T09:00:00:Z","depth":0,"parameterNumber":2,"parameterNumberName":"U-component_of_WINDS"},"data":[0,0,0,0,0,0,0,0,0,0,0,0,0,0,0,0,0,0,0,0,0,0,0,0,0,0,0,0,0,0,0,0,0,0,0,0,0,0,0,0,0,0,0,0,0,0,0,0,0,0,0,0,0,0,0,0,0,0,2.178,2.1781,0,2.191,2.1911,2.1913,2.1903,2.1902,2.19,2.1898,2.2038,2.2044,2.2049,0,0,0,0,0,0,0,0,0,0,0,0,0,2.1532,2.1536,2.178,2.1781,2.1783,2.1909,2.1911,2.1913,2.1904,2.1901,2.1899,2.1897,2.2037,2.2043,2.205,0,0,0,0,0,0,0,0,0,0,0,0,0,2.1648,2.1538,2.1779,2.1793,2.1796,2.1909,2.1911,2.1914,2.1904,2.1901,2.1898,2.1896,2.2034,2.2042,2.2051,2.2161,0,0,2.2076,2.208,0,0,0,0,0,0,0,0,2.1642,2.1658,2.179,2.1793,2.1796,2.1887,2.1875,2.1997,2.1905,2.1863,2.1898,2.1894,2.1991,2.2003,2.2034,2.2167,2.2173,2.2077,2.2082,2.2086,2.2088,0,0,0,0,0,0,0,2.1634,2.1652,2.1831,2.1792,2.1795,2.1796,2.1809,2.1898,2.1942,2.1867,2.1866,2.1882,2.1992,2.2026,2.2037,2.2175,2.2077,2.2084,2.2089,2.2092,2.2409,2.2413,0,0,0,0,0,0,2.1621,2.1645,2.1827,2.1835,2.171,2.1803,2.1818,2.1861,2.1941,2.195,2.1884,2.1881,2.2013,2.2027,2.2042,2.2178,2.2085,2.2093,2.2098,2.2406,2.241,2.2414,0,0,0,0,0,0,2.1616,2.1638,2.1822,2.174,2.1764,2.181,2.1859,2.1865,2.1898,2.1954,2.1963,2.191,2.2011,2.203,2.2131,2.2183,2.2097,2.2105,2.2402,2.2407,2.2412,2.245,0,0,0,0,0,0,2.1609,2.1636,2.1676,2.1741,2.1768,2.1907,2.1862,2.187,2.1912,2.1909,2.198,2.199,2.201,2.2119,2.214,2.2193,2.2111,2.2398,2.2404,2.241,2.2445,2.2456,2.2466,0,0,0,0,0,2.16,2.1683,2.1678,2.17,2.1819,2.191,2.1925,2.1945,2.1916,2.1959,2.1995,2.1987,2.2173,2.2129,2.2153,2.2209,2.2394,2.2402,2.241,2.244,2.2454,2.2466,0,0,0,0,0,0,2.1624,2.1691,2.1687,2.1792,2.1845,2.1908,2.1962,2.1959,2.2023,2.2018,2.2042,2.2059,2.2161,2.2195,2.2145,2.2322,2.2281,2.2293,2.2296,2.2309,2.232,2.2311,2.2118,0,0,0,0,0,2.1641,2.1707,2.1763,2.1851,2.1877,2.1915,2.1955,2.1966,2.2023,2.2046,2.2089,2.2147,2.2219,2.2266,2.2334,2.2449,2.2467,2.25,2.251,2.2519,2.253,2.2597,2.2613,2.2439,2.2439,2.2439,0,0,2.1679,2.1723,2.1764,2.1857,2.1899,2.197,2.1934,2.201,2.2063,2.2058,2.2157,2.2191,2.2257,2.2366,2.2416,2.2397,2.2582,2.2529,2.2535,2.2542,2.2606,2.2623,2.2637,2.2444,2.2443,2.2442,0,0,2.1782,2.1821,2.19,2.1943,2.2007,2.2032,2.205,2.2114,2.2136,2.2234,2.2233,2.2298,2.242,2.2469,2.2509,2.2633,2.263,2.2655,2.2711,2.2775,2.2789,2.2801,2.2848,2.2865,2.2665,2.2666,2.2666,0,2.1821,2.1925,2.1941,2.2018,2.2061,2.2057,2.2139,2.2181,2.2265,2.2296,2.2273,2.2427,2.2472,2.2593,2.2624,2.2655,2.2681,2.2647,2.2785,2.2798,2.281,2.2855,2.2872,2.2668,2.2668,2.2668,2.2667,0,2.1971,2.2043,2.2099,2.2179,2.2228,2.2307,2.2338,2.2386,2.2393,2.2421,2.2524,2.2576,2.2657,2.2686,2.2694,2.281,2.2797,2.2779,2.2739,2.2829,2.2872,2.2889,2.2672,2.2671,2.2671,2.267,0,0,2.2094,2.2182,2.2203,2.224,2.2311,2.2369,2.2449,2.2525,2.2568,2.2626,2.2696,2.28,2.2785,2.2831,2.2844,2.29,2.2999,2.2876,2.2878,2.29,2.3134,2.3148,2.3167,2.2996,2.3,2.3002,2.3129,0,2.2207,2.2346,2.2365,2.249,2.2559,2.2557,2.2628,2.268,2.2709,2.2774,2.2807,2.2881,2.2853,2.2882,2.2937,2.2975,2.3047,2.2966,2.3065,2.3068,2.305,2.3189,2.3205,2.3321,2.3145,2.3148,2.315,0,2.2358,2.2419,2.255,2.2614,2.2643,2.2706,2.2779,2.284,2.2901,2.2918,2.297,2.2977,2.3063,2.3018,2.3139,2.3084,2.3126,2.3151,2.3156,2.3168,2.3116,2.3208,2.3359,2.3377,2.3176,2.3174,2.3172,0,2.2438,2.2553,2.2647,2.2679,2.2754,2.2799,2.2833,2.2891,2.2937,2.3002,2.3032,2.3107,2.3149,2.3208,2.3236,2.32,2.3357,2.3313,2.3376,2.3376,2.3411,2.3409,2.3573,2.3434,2.3434,2.3433,2.3433,0,2.2564,2.2645,2.2685,2.2743,2.2835,2.2856,2.2948,2.2981,2.3032,2.3099,2.3103,2.3166,2.3198,2.3267,2.329,2.3389,2.3407,2.3426,2.3431,2.3427,2.3425,2.3456,2.345,2.3438,2.3437,2.3436,2.3435,0,2.2669,2.2699,2.2802,2.2865,2.2883,2.2948,2.3003,2.3062,2.309,2.3175,2.3196,2.3241,2.3323,2.3356,2.3456,2.3472,2.3586,2.3584,2.3565,2.3567,2.363,2.3625,2.3822,2.3851,2.369,2.3692,2.3693,0,2.2749,2.2811,2.2881,2.2925,2.296,2.3031,2.3077,2.3101,2.315,2.3226,2.3276,2.3356,2.3423,2.3554,2.3597,2.3675,2.3677,2.3741,2.3689,2.3683,2.3681,2.3678,2.3686,2.3751,2.3753,2.3754,2.3755,0,2.2887,2.2899,2.2965,2.3037,2.3092,2.315,2.3207,2.3244,2.3277,2.3332,2.3415,2.3466,2.3568,2.365,2.373,2.3768,2.3769,2.3771,2.379,2.3787,2.3774,2.3785,2.3594,2.3767,2.3766,2.3765,2.3764,2.3764,2.2984,2.3041,2.3099,2.3173,2.3218,2.3271,2.3329,2.3365,2.3433,2.3517,2.3527,2.3617,2.3679,2.3786,2.3828,2.39,2.3884,2.3911,2.3919,2.3926,2.3931,2.3761,2.3915,2.3914,2.3914,2.3914,2.3914,0,2.3126,2.3163,2.3231,2.331,2.3369,2.3361,2.3424,2.3475,2.3553,2.3609,2.3674,2.3771,2.385,2.39,2.3981,2.4029,2.4032,2.405,2.4048,2.4057,2.3939,2.3916,2.4047,2.4047,2.4047,2.4047,2.4047,2.4046,2.3206,2.3302,2.3321,2.344,2.3477,2.3563,2.36,2.3651,2.3696,2.3803,2.3868,2.3899,2.3955,2.404,2.4113,2.4126,2.4157,2.4177,2.4189,2.4079,2.4065,2.4052,2.403,2.4183,2.4183,2.4301,2.4302,2.4303]},{"header":{"parameterUnit":"m.s-1","parameterCategory":1,"la1":30.2991,"la2":30.254,"lo1":-89.0895,"lo2":-89.0444,"dy":0.0017,"dx":0.0017,"nx":28,"ny":28,"refTime":"2024-08-18T09:00:00:Z","depth":0,"parameterNumber":3,"parameterNumberName":"V-component_of_WINDS"},"data":[0,0,0,0,0,0,0,0,0,0,0,0,0,0,0,0,0,0,0,0,0,0,0,0,0,0,0,0,0,0,0,0,0,0,0,0,0,0,0,0,0,0,0,0,0,0,0,0,0,0,0,0,0,0,0,0,0,0,2.1881,2.1883,0,2.204,2.2042,2.2043,2.2042,2.204,2.2038,2.2036,2.2196,2.2202,2.2208,0,0,0,0,0,0,0,0,0,0,0,0,0,2.157,2.1576,2.1881,2.1883,2.1885,2.2039,2.2042,2.2044,2.2043,2.204,2.2038,2.2035,2.2194,2.2202,2.2209,0,0,0,0,0,0,0,0,0,0,0,0,0,2.1715,2.1578,2.188,2.1903,2.1907,2.2039,2.2042,2.2044,2.2043,2.204,2.2037,2.2034,2.2192,2.2201,2.221,2.233,0,0,2.2238,2.2242,0,0,0,0,0,0,0,0,2.1706,2.1726,2.1898,2.1902,2.1906,2.2018,2.1991,2.214,2.2044,2.1991,2.2036,2.2033,2.2139,2.2153,2.2189,2.2337,2.2344,2.2239,2.2245,2.2249,2.2252,0,0,0,0,0,0,0,2.1696,2.1719,2.1944,2.19,2.1905,2.1903,2.192,2.2019,2.2081,2.1996,2.1996,2.2015,2.2141,2.218,2.2193,2.2347,2.2239,2.2247,2.2253,2.2257,2.2594,2.2597,0,0,0,0,0,0,2.1682,2.1711,2.1939,2.1948,2.1796,2.1911,2.193,2.1985,2.208,2.2091,2.2017,2.2014,2.2166,2.2182,2.2199,2.2341,2.2249,2.2258,2.2263,2.259,2.2594,2.2598,0,0,0,0,0,0,2.1676,2.1703,2.1932,2.183,2.1859,2.192,2.1981,2.199,2.2029,2.2096,2.2107,2.2047,2.2164,2.2186,2.2296,2.2346,2.2262,2.227,2.2586,2.2592,2.2596,2.2629,0,0,0,0,0,0,2.1667,2.17,2.1749,2.1831,2.1864,2.2029,2.1985,2.1995,2.2046,2.2043,2.2127,2.2137,2.2163,2.2282,2.2305,2.2358,2.2277,2.2582,2.2589,2.2595,2.2623,2.2634,2.2644,0,0,0,0,0,2.1656,2.1752,2.1751,2.1778,2.1926,2.2032,2.2051,2.208,2.205,2.2097,2.2139,2.2135,2.2337,2.2293,2.2319,2.2376,2.2579,2.2587,2.2594,2.2619,2.2632,2.2643,0,0,0,0,0,0,2.1675,2.1764,2.1763,2.189,2.1953,2.2032,2.2093,2.2094,2.2167,2.2161,2.2193,2.2212,2.232,2.2359,2.2309,2.2493,2.2454,2.2467,2.2464,2.2477,2.2487,2.2474,2.2285,0,0,0,0,0,2.1694,2.1774,2.1847,2.1951,2.1982,2.2032,2.2079,2.2095,2.2162,2.2189,2.224,2.2303,2.238,2.2431,2.2507,2.2629,2.2644,2.268,2.269,2.2698,2.2708,2.277,2.2785,2.2623,2.2623,2.2623,0,0,2.1734,2.1792,2.1841,2.1956,2.2007,2.2086,2.2055,2.2142,2.22,2.2202,2.2308,2.2347,2.242,2.2535,2.2588,2.2571,2.2756,2.2707,2.2713,2.272,2.2779,2.2794,2.2808,2.2628,2.2627,2.2626,0,0,2.1846,2.19,2.199,2.2041,2.2119,2.215,2.2171,2.2249,2.2274,2.2382,2.2383,2.2452,2.2586,2.2636,2.2679,2.2805,2.2801,2.2828,2.2881,2.294,2.2953,2.2964,2.3005,2.302,2.2839,2.2839,2.2839,0,2.1886,2.2008,2.2037,2.2123,2.2171,2.2175,2.2264,2.2312,2.241,2.2442,2.2421,2.2586,2.2636,2.276,2.279,2.2826,2.2848,2.2819,2.2949,2.2961,2.2972,2.3011,2.3026,2.2841,2.2841,2.2841,2.2841,0,2.205,2.2134,2.2197,2.229,2.2345,2.2433,2.2472,2.2524,2.2534,2.2567,2.2672,2.2732,2.2816,2.2847,2.2859,2.2972,2.2958,2.2943,2.2904,2.2989,2.3026,2.3042,2.2845,2.2844,2.2843,2.2843,0,0,2.2182,2.2286,2.2308,2.2348,2.2431,2.2496,2.2581,2.2663,2.2705,2.2772,2.2841,2.2952,2.2937,2.2985,2.3002,2.3055,2.3144,2.3033,2.3035,2.3048,2.3266,2.3275,2.3292,2.3143,2.3146,2.3148,2.3259,0,2.23,2.2453,2.2479,2.2611,2.2686,2.2689,2.2762,2.2819,2.285,2.2916,2.2951,2.3027,2.3004,2.3032,2.3085,2.3122,2.3188,2.3115,2.3204,2.3207,2.3184,2.3312,2.3323,2.3425,2.3274,2.3276,2.3278,0,2.246,2.2528,2.2668,2.2736,2.2768,2.2834,2.2909,2.2973,2.3036,2.3054,2.3106,2.3115,2.32,2.3157,2.3272,2.3221,2.3259,2.3282,2.3287,2.3295,2.3246,2.332,2.3459,2.3472,2.3302,2.33,2.3298,0,2.2537,2.2664,2.2762,2.2797,2.288,2.2925,2.2961,2.3021,2.3067,2.3132,2.3161,2.3235,2.3275,2.3331,2.3357,2.3325,2.3468,2.3429,2.3483,2.3482,2.3512,2.3509,2.3655,2.3541,2.354,2.354,2.354,0,2.2666,2.275,2.2797,2.2858,2.295,2.2977,2.3068,2.3103,2.3155,2.3219,2.3227,2.3287,2.332,2.3384,2.3405,2.3494,2.3513,2.3527,2.3531,2.3525,2.3523,2.3549,2.3542,2.3544,2.3543,2.3542,2.3542,0,2.2767,2.2803,2.2909,2.2978,2.2997,2.3061,2.3119,2.3175,2.3205,2.3286,2.3307,2.3352,2.3427,2.346,2.3553,2.3567,2.3667,2.3667,2.3645,2.3646,2.3696,2.369,2.3862,2.3884,2.3758,2.3759,2.376,0,2.2846,2.291,2.2984,2.3028,2.3065,2.3136,2.3182,2.321,2.3258,2.3331,2.3377,2.3452,2.3514,2.3633,2.3673,2.3742,2.3742,2.3798,2.3753,2.3743,2.3739,2.3733,2.3738,2.3806,2.3807,2.3808,2.3809,0,2.298,2.2993,2.306,2.3132,2.3187,2.3245,2.3301,2.3336,2.3372,2.3424,2.3501,2.3548,2.3641,2.3713,2.3784,2.3819,2.3818,2.3822,2.3838,2.3831,2.3814,2.382,2.3664,2.3818,2.3817,2.3817,2.3816,2.3816,2.307,2.3125,2.3185,2.3258,2.3302,2.3354,2.3409,2.3444,2.3509,2.3586,2.3598,2.3678,2.3734,2.3829,2.3866,2.3927,2.3913,2.3936,2.3941,2.3946,2.3947,2.3806,2.394,2.394,2.394,2.394,2.3939,0,2.3201,2.3239,2.3305,2.3383,2.3439,2.3434,2.3495,2.3541,2.3612,2.3665,2.3724,2.3808,2.3878,2.3922,2.3991,2.403,2.4031,2.4047,2.4043,2.405,2.3958,2.3936,2.4045,2.4045,2.4045,2.4045,2.4045,2.4045,2.3276,2.3368,2.3387,2.3499,2.3535,2.3614,2.3649,2.3694,2.3736,2.383,2.3888,2.3916,2.3963,2.4035,2.4096,2.4107,2.4131,2.4147,2.4156,2.4069,2.4057,2.4047,2.4026,2.4152,2.4153,2.4243,2.4244,2.4244]}]]